TimeCDT,TemperatureF,Dew PointF,Humidity,Sea Level PressureIn,VisibilityMPH,Wind Direction,Wind SpeedMPH,Gust SpeedMPH,PrecipitationIn,Events,Conditions,WindDirDegrees,DateUTC
12:56 AM,72.0,70.0,93,30.01,5.0,West,3.5,-,N/A,,Clear,280,2013-08-22 05:56:00
1:56 AM,72.0,70.0,93,29.99,4.0,Calm,Calm,-,N/A,,Clear,0,2013-08-22 06:56:00
2:19 AM,69.8,69.8,100,30.03,1.8,Calm,Calm,-,N/A,,Clear,0,2013-08-22 07:19:00
2:30 AM,69.8,69.8,100,30.03,2.5,Calm,Calm,-,N/A,,Clear,0,2013-08-22 07:30:00
2:51 AM,71.6,69.8,94,30.04,4.0,SW,4.6,-,N/A,,Clear,230,2013-08-22 07:51:00
2:56 AM,72.0,71.1,97,30.01,4.0,Calm,Calm,-,N/A,,Clear,0,2013-08-22 07:56:00
3:12 AM,71.6,69.8,94,30.04,2.5,SSW,8.1,-,N/A,,Clear,200,2013-08-22 08:12:00
3:20 AM,71.6,69.8,94,30.03,3.0,SSW,5.8,-,N/A,,Partly Cloudy,200,2013-08-22 08:20:00
3:56 AM,71.1,70.0,96,30.02,4.0,SSW,13.8,-,N/A,,Mostly Cloudy,200,2013-08-22 08:56:00
4:13 AM,71.6,69.8,94,30.05,7.0,SSW,9.2,17.3,N/A,,Mostly Cloudy,210,2013-08-22 09:13:00
4:33 AM,69.8,68.0,94,30.05,9.0,SSW,9.2,-,N/A,,Scattered Clouds,200,2013-08-22 09:33:00
4:56 AM,69.8,66.2,88,30.04,10.0,Calm,Calm,-,N/A,,Mostly Cloudy,0,2013-08-22 09:56:00
5:56 AM,66.2,64.4,94,30.04,6.0,North,3.5,-,N/A,,Mostly Cloudy,360,2013-08-22 10:56:00
6:56 AM,64.9,64.0,97,30.07,6.0,North,3.5,-,N/A,,Scattered Clouds,10,2013-08-22 11:56:00
7:28 AM,66.2,66.2,100,30.08,4.0,Calm,Calm,-,N/A,,Scattered Clouds,0,2013-08-22 12:28:00
7:32 AM,64.4,64.4,100,30.09,4.0,Calm,Calm,-,N/A,,Mostly Cloudy,0,2013-08-22 12:32:00
7:56 AM,69.1,68.0,96,30.07,4.0,NNE,5.8,-,N/A,,Scattered Clouds,20,2013-08-22 12:56:00
8:56 AM,69.1,63.0,81,30.08,10.0,NE,11.5,-,N/A,,Partly Cloudy,50,2013-08-22 13:56:00
9:56 AM,73.0,64.9,76,30.08,10.0,NE,9.2,-,N/A,,Clear,40,2013-08-22 14:56:00
10:56 AM,75.9,66.0,71,30.08,10.0,NE,11.5,-,N/A,,Partly Cloudy,40,2013-08-22 15:56:00
11:56 AM,79.0,66.9,66,30.08,10.0,NE,12.7,-,N/A,,Scattered Clouds,50,2013-08-22 16:56:00
12:56 PM,80.1,64.9,60,30.09,10.0,ENE,11.5,-,N/A,,Scattered Clouds,70,2013-08-22 17:56:00
1:56 PM,80.1,63.0,56,30.08,10.0,ENE,9.2,-,N/A,,Mostly Cloudy,70,2013-08-22 18:56:00
2:56 PM,81.0,64.0,56,30.08,10.0,East,11.5,-,N/A,,Mostly Cloudy,90,2013-08-22 19:56:00
3:56 PM,81.0,64.0,56,30.08,10.0,ESE,10.4,-,N/A,,Partly Cloudy,110,2013-08-22 20:56:00
4:56 PM,81.0,64.9,58,30.08,10.0,East,8.1,-,N/A,,Partly Cloudy,80,2013-08-22 21:56:00
5:56 PM,80.1,64.0,58,30.07,10.0,ENE,10.4,-,N/A,,Scattered Clouds,70,2013-08-22 22:56:00
6:56 PM,78.1,63.0,60,30.08,10.0,East,11.5,-,N/A,,Scattered Clouds,80,2013-08-22 23:56:00
7:56 PM,75.0,64.0,69,30.08,10.0,East,8.1,-,N/A,,Scattered Clouds,90,2013-08-23 00:56:00
8:56 PM,73.0,63.0,71,30.08,10.0,ENE,9.2,-,N/A,,Partly Cloudy,70,2013-08-23 01:56:00
9:56 PM,71.1,63.0,75,30.09,10.0,ENE,6.9,-,N/A,,Scattered Clouds,70,2013-08-23 02:56:00
10:56 PM,69.1,63.0,81,30.10,10.0,East,3.5,-,N/A,,Mostly Cloudy,90,2013-08-23 03:56:00
11:56 PM,66.9,63.0,87,30.09,10.0,East,4.6,-,N/A,,Mostly Cloudy,90,2013-08-23 04:56:00